[[{"header":{"parameterUnit":"m.s-1","parameterCategory":2,"la1":30.2991,"la2":30.254,"lo1":-89.0895,"lo2":-89.0444,"dy":0.0017,"dx":0.0017,"nx":28,"ny":28,"refTime":"2025-01-08T09:00:00:Z","depth":"0","parameterNumber":2,"parameterNumberName":"U-component_of_CURRENTS"},"data":[0,0,0,0,0,0,0,0,0,0,0,0,0,0,0,0,0,0,0,0,0,0,0,0,0,0,0,0,0,0,0,0,0,0,0,0,0,0,0,0,0,0,0,0,0,0,0,0,0,0,0,0,0,0,0,0,0,0,0.2037,0.2037,0,0.2012,0.2011,0.2011,0.2001,0.2001,0.2001,0.2002,0.193,0.1928,0.1926,0,0,0,0,0,0,0,0,0,0,0,0,0,0.209,0.2089,0.2037,0.2037,0.2037,0.2012,0.2011,0.201,0.2001,0.2001,0.2001,0.2002,0.1931,0.1928,0.1926,0,0,0,0,0,0,0,0,0,0,0,0,0,0.2063,0.2089,0.2037,0.2031,0.203,0.2012,0.2011,0.201,0.2001,0.2001,0.2002,0.2002,0.1932,0.1928,0.1925,0.1895,0,0,0.1915,0.1914,0,0,0,0,0,0,0,0,0.2065,0.2061,0.2032,0.2031,0.2031,0.2012,0.2004,0.197,0.2,0.2009,0.2002,0.2002,0.1955,0.195,0.194,0.1891,0.1888,0.1915,0.1913,0.1911,0.191,0,0,0,0,0,0,0,0.2067,0.2062,0.2024,0.2032,0.2031,0.2035,0.2031,0.1997,0.1976,0.2008,0.2008,0.201,0.1954,0.1944,0.1938,0.1887,0.1915,0.1912,0.191,0.1908,0.1856,0.1856,0,0,0,0,0,0,0.2074,0.2064,0.2025,0.2024,0.2053,0.2033,0.2029,0.2015,0.1978,0.1974,0.2009,0.2009,0.1949,0.1942,0.1936,0.1932,0.1911,0.1908,0.1906,0.1855,0.1856,0.1857,0,0,0,0,0,0,0.2075,0.207,0.2026,0.2047,0.2042,0.2032,0.2017,0.2015,0.2008,0.198,0.1974,0.2005,0.1949,0.1941,0.1916,0.1928,0.1907,0.1904,0.1855,0.1855,0.1856,0.1902,0,0,0,0,0,0,0.2076,0.207,0.2062,0.2046,0.2041,0.202,0.2017,0.2014,0.2009,0.2009,0.1974,0.1968,0.1949,0.1921,0.1913,0.1923,0.1901,0.1854,0.1855,0.1856,0.1899,0.1904,0.1908,0,0,0,0,0,0.2078,0.2064,0.2061,0.2057,0.2029,0.2021,0.2018,0.2011,0.2009,0.2006,0.1987,0.1969,0.1923,0.1918,0.1908,0.1918,0.1853,0.1855,0.1856,0.1897,0.1903,0.1908,0,0,0,0,0,0,0.2071,0.2062,0.2058,0.2038,0.2034,0.202,0.2018,0.2012,0.1993,0.1994,0.1965,0.1957,0.1946,0.1922,0.1918,0.1908,0.1889,0.1889,0.1924,0.1929,0.1933,0.1944,0.1898,0,0,0,0,0,0.2069,0.2061,0.2052,0.2037,0.2038,0.2028,0.2023,0.202,0.2005,0.1998,0.1975,0.1955,0.1942,0.1928,0.1911,0.1891,0.1892,0.1895,0.1899,0.1903,0.1906,0.1927,0.1933,0.1861,0.1861,0.1861,0,0,0.206,0.2056,0.2049,0.2037,0.2033,0.2033,0.2025,0.2022,0.2022,0.1991,0.1979,0.1966,0.1942,0.1933,0.1926,0.1913,0.1925,0.1905,0.1908,0.1909,0.1929,0.1936,0.1942,0.1862,0.1862,0.1862,0,0,0.205,0.2038,0.2037,0.2038,0.204,0.2036,0.2038,0.2028,0.2026,0.2011,0.2001,0.1997,0.1959,0.1957,0.1948,0.1961,0.195,0.1956,0.1978,0.1998,0.2005,0.201,0.2026,0.2032,0.1954,0.1954,0.1954,0,0.2045,0.2033,0.2034,0.2039,0.2042,0.204,0.2042,0.2039,0.2022,0.2023,0.2015,0.1996,0.1975,0.1979,0.1988,0.1972,0.1979,0.1961,0.2005,0.201,0.2015,0.203,0.2036,0.1956,0.1956,0.1956,0.1956,0,0.2035,0.2032,0.2033,0.204,0.2044,0.2044,0.205,0.2051,0.2048,0.2046,0.2051,0.2033,0.2025,0.2023,0.2005,0.2031,0.2025,0.2013,0.1994,0.2026,0.2039,0.2045,0.196,0.1959,0.1958,0.1958,0,0,0.1998,0.2024,0.2021,0.2035,0.2046,0.2049,0.2059,0.2067,0.2081,0.2072,0.209,0.2077,0.2077,0.2069,0.2057,0.207,0.2111,0.2056,0.2056,0.2075,0.2157,0.2147,0.2153,0.211,0.2111,0.2112,0.2155,0,0.1988,0.2007,0.2015,0.2029,0.2042,0.2055,0.2067,0.208,0.2089,0.2106,0.2107,0.2117,0.2092,0.2099,0.2109,0.2115,0.2129,0.2101,0.212,0.2121,0.2111,0.216,0.2111,0.2145,0.216,0.2161,0.2162,0,0.1964,0.1987,0.2005,0.2044,0.2049,0.2058,0.209,0.21,0.2129,0.2142,0.2158,0.216,0.2182,0.2158,0.2185,0.217,0.2166,0.2167,0.2169,0.2147,0.2122,0.2114,0.2155,0.213,0.2171,0.2171,0.217,0,0.1942,0.1973,0.1991,0.2002,0.2044,0.2057,0.2076,0.2108,0.2126,0.217,0.2193,0.2215,0.2234,0.224,0.2237,0.2218,0.227,0.2243,0.2229,0.2228,0.2184,0.2177,0.2204,0.2263,0.2263,0.2263,0.2263,0,0.1922,0.1933,0.1986,0.1996,0.2018,0.2056,0.2078,0.2106,0.2154,0.218,0.221,0.224,0.2257,0.2281,0.2268,0.2277,0.2296,0.2247,0.2245,0.2198,0.2192,0.2164,0.2134,0.2265,0.2264,0.2264,0.2264,0,0.1885,0.1917,0.194,0.1994,0.2006,0.2022,0.2069,0.2097,0.2149,0.2188,0.2206,0.2272,0.2311,0.2321,0.2344,0.232,0.2278,0.2318,0.2262,0.2252,0.2205,0.2178,0.2139,0.2058,0.2314,0.2315,0.2315,0,0.1867,0.1879,0.1926,0.1942,0.1962,0.1993,0.2017,0.2077,0.2111,0.2197,0.2221,0.2286,0.232,0.2368,0.236,0.236,0.2279,0.2295,0.2245,0.2212,0.2181,0.2117,0.2045,0.2205,0.2204,0.2204,0.2203,0,0.1837,0.1852,0.1877,0.1908,0.1934,0.1956,0.1999,0.2023,0.2096,0.2137,0.2203,0.2246,0.2323,0.232,0.2338,0.2323,0.2214,0.2281,0.2263,0.2117,0.2033,0.1949,0.2166,0.2197,0.2198,0.2198,0.2199,0.2199,0.1807,0.1812,0.1846,0.1869,0.1894,0.1911,0.1902,0.1963,0.1994,0.2042,0.2136,0.2189,0.2261,0.2296,0.2265,0.2225,0.218,0.216,0.2138,0.2082,0.198,0.2186,0.2203,0.2204,0.2205,0.2205,0.2205,0,0.1769,0.1784,0.1809,0.1819,0.182,0.1853,0.1881,0.1863,0.1866,0.1966,0.2008,0.2113,0.2141,0.2182,0.2181,0.2099,0.2007,0.2044,0.1944,0.188,0.2092,0.2064,0.2032,0.2032,0.2032,0.2032,0.2032,0.2032,0.1749,0.1751,0.1764,0.1742,0.1746,0.1703,0.1699,0.1692,0.1738,0.1785,0.1855,0.1943,0.2088,0.2168,0.2108,0.2052,0.1877,0.1836,0.1786,0.1959,0.1968,0.1977,0.1946,0.189,0.189,0.1522,0.1519,0.1517]},{"header":{"parameterUnit":"m.s-1","parameterCategory":2,"la1":30.2991,"la2":30.254,"lo1":-89.0895,"lo2":-89.0444,"dy":0.0017,"dx":0.0017,"nx":28,"ny":28,"refTime":"2025-01-08T09:00:00:Z","depth":"0","parameterNumber":3,"parameterNumberName":"V-component_of_CURRENTS"},"data":[0,0,0,0,0,0,0,0,0,0,0,0,0,0,0,0,0,0,0,0,0,0,0,0,0,0,0,0,0,0,0,0,0,0,0,0,0,0,0,0,0,0,0,0,0,0,0,0,0,0,0,0,0,0,0,0,0,0,-0.026,-0.026,0,-0.0296,-0.0297,-0.0297,-0.0318,-0.0318,-0.0319,-0.0319,-0.0298,-0.0298,-0.0297,0,0,0,0,0,0,0,0,0,0,0,0,0,-0.0198,-0.0199,-0.026,-0.026,-0.0261,-0.0296,-0.0297,-0.0297,-0.0318,-0.0318,-0.0319,-0.0319,-0.0299,-0.0298,-0.0297,0,0,0,0,0,0,0,0,0,0,0,0,0,-0.0227,-0.0199,-0.0259,-0.0277,-0.0279,-0.0296,-0.0297,-0.0297,-0.0318,-0.0318,-0.0319,-0.0319,-0.0299,-0.0298,-0.0297,-0.0283,0,0,-0.0293,-0.0293,0,0,0,0,0,0,0,0,-0.0226,-0.0229,-0.0274,-0.0276,-0.0278,-0.0304,-0.0268,-0.029,-0.0318,-0.0301,-0.0319,-0.0319,-0.0296,-0.0295,-0.03,-0.0282,-0.0281,-0.0293,-0.0293,-0.0292,-0.0292,0,0,0,0,0,0,0,-0.0224,-0.0228,-0.0273,-0.0274,-0.0277,-0.028,-0.0284,-0.0272,-0.0294,-0.0303,-0.0305,-0.0311,-0.0297,-0.0301,-0.0299,-0.0281,-0.0293,-0.0292,-0.0292,-0.0291,-0.0252,-0.0252,0,0,0,0,0,0,-0.0223,-0.0226,-0.0271,-0.0274,-0.0254,-0.0281,-0.0285,-0.0294,-0.0295,-0.0297,-0.0311,-0.0312,-0.0303,-0.0301,-0.0299,-0.0274,-0.0292,-0.0291,-0.029,-0.0252,-0.0252,-0.0251,0,0,0,0,0,0,-0.0221,-0.0226,-0.027,-0.0252,-0.0258,-0.0281,-0.0291,-0.0295,-0.03,-0.0303,-0.0303,-0.0312,-0.0303,-0.03,-0.0289,-0.0273,-0.0291,-0.029,-0.0253,-0.0252,-0.0252,-0.0229,0,0,0,0,0,0,-0.0219,-0.0226,-0.0228,-0.0252,-0.0259,-0.0274,-0.0291,-0.0295,-0.0304,-0.0306,-0.0304,-0.0302,-0.0303,-0.029,-0.0288,-0.0272,-0.0289,-0.0253,-0.0252,-0.0252,-0.023,-0.0228,-0.0225,0,0,0,0,0,-0.0217,-0.0218,-0.0227,-0.0233,-0.0262,-0.0274,-0.0277,-0.0294,-0.0304,-0.03,-0.0304,-0.0302,-0.0284,-0.0289,-0.0286,-0.027,-0.0254,-0.0253,-0.0252,-0.0231,-0.0228,-0.0225,0,0,0,0,0,0,-0.0189,-0.0222,-0.0232,-0.0242,-0.0255,-0.0278,-0.0278,-0.0291,-0.0293,-0.0293,-0.0297,-0.0295,-0.028,-0.0279,-0.0285,-0.0257,-0.0268,-0.0267,-0.0254,-0.0251,-0.0249,-0.0241,-0.0288,0,0,0,0,0,-0.0186,-0.0197,-0.0222,-0.0229,-0.0234,-0.0255,-0.0262,-0.0273,-0.0281,-0.0283,-0.0283,-0.0281,-0.0274,-0.0266,-0.0261,-0.0242,-0.0251,-0.0231,-0.0228,-0.0226,-0.0218,-0.0222,-0.0219,-0.0249,-0.0249,-0.0249,0,0,-0.0176,-0.0196,-0.0201,-0.0224,-0.0235,-0.0234,-0.0259,-0.0266,-0.0261,-0.0278,-0.0266,-0.0271,-0.0269,-0.0253,-0.0245,-0.0249,-0.0225,-0.0225,-0.0224,-0.0216,-0.0221,-0.0218,-0.0215,-0.0248,-0.0248,-0.0248,0,0,-0.0159,-0.018,-0.018,-0.0189,-0.0206,-0.0217,-0.0218,-0.0237,-0.024,-0.0234,-0.0245,-0.0243,-0.0232,-0.0229,-0.0225,-0.0205,-0.0215,-0.0202,-0.0179,-0.0182,-0.018,-0.0178,-0.0196,-0.0196,-0.0198,-0.0198,-0.0198,0,-0.0144,-0.0152,-0.0179,-0.0178,-0.0179,-0.0207,-0.0196,-0.0202,-0.0213,-0.0207,-0.0225,-0.0217,-0.022,-0.0197,-0.0196,-0.0198,-0.0208,-0.0189,-0.0179,-0.0177,-0.0176,-0.0195,-0.0195,-0.0197,-0.0197,-0.0197,-0.0197,0,-0.0124,-0.0129,-0.0128,-0.0136,-0.0138,-0.0135,-0.0148,-0.0145,-0.0157,-0.0163,-0.0152,-0.0168,-0.0162,-0.0165,-0.0176,-0.0159,-0.0174,-0.0179,-0.0186,-0.0171,-0.0193,-0.0193,-0.0195,-0.0196,-0.0196,-0.0196,0,0,-0.0088,-0.011,-0.0107,-0.0101,-0.0116,-0.0111,-0.01,-0.0093,-0.0075,-0.0096,-0.0077,-0.0087,-0.0104,-0.0102,-0.0117,-0.0124,-0.0133,-0.0145,-0.0146,-0.0163,-0.0152,-0.0176,-0.018,-0.0137,-0.0136,-0.0136,-0.0176,0,-0.0059,-0.005,-0.0067,-0.0043,-0.0036,-0.0051,-0.0038,-0.0034,-0.0033,-0.0021,-0.0045,-0.0037,-0.0076,-0.0076,-0.009,-0.0115,-0.013,-0.0122,-0.0163,-0.0165,-0.0188,-0.0179,-0.0202,-0.024,-0.0176,-0.0176,-0.0176,0,-0.0026,-0.0026,-0.0004,0.0001,0.0005,0.0017,0.0044,0.0054,0.006,0.0057,0.0053,0.0033,0.0019,-0.0021,-0.0065,-0.0058,-0.0103,-0.0133,-0.0135,-0.0163,-0.0189,-0.0243,-0.0244,-0.039,-0.0177,-0.0177,-0.0177,0,0.0021,0.0025,0.0045,0.0047,0.0047,0.0061,0.0066,0.008,0.0105,0.0109,0.0124,0.0096,0.0088,0.0031,-0.0044,-0.0051,-0.0098,-0.0115,-0.0182,-0.0185,-0.0214,-0.022,-0.0359,-0.0148,-0.0148,-0.0148,-0.0148,0,0.0059,0.0078,0.0066,0.008,0.0113,0.01,0.0145,0.0147,0.0166,0.0208,0.0165,0.0188,0.0101,0.0062,-0.0018,-0.0102,-0.0081,-0.0176,-0.0192,-0.0209,-0.0214,-0.0349,-0.0427,-0.015,-0.0149,-0.0149,-0.0149,0,0.0107,0.0096,0.0122,0.0127,0.0134,0.0159,0.0189,0.0227,0.0229,0.0281,0.0283,0.0263,0.021,0.0113,0.0025,-0.006,-0.023,-0.0181,-0.0204,-0.0222,-0.0421,-0.0496,-0.0632,-0.0695,-0.0259,-0.026,-0.0261,0,0.0128,0.0146,0.0164,0.0185,0.0189,0.022,0.0249,0.0257,0.0305,0.0335,0.037,0.0332,0.0321,0.0169,0.0012,-0.0138,-0.0261,-0.0265,-0.0283,-0.0437,-0.0532,-0.058,-0.0626,-0.0321,-0.0323,-0.0323,-0.0324,0,0.0176,0.0183,0.0203,0.0243,0.0276,0.0315,0.0357,0.04,0.0424,0.0465,0.051,0.05,0.0351,0.0199,-0.0018,-0.0134,-0.0384,-0.0288,-0.0437,-0.0584,-0.0654,-0.0721,-0.0305,-0.0332,-0.0331,-0.0331,-0.033,-0.033,0.0215,0.0237,0.0265,0.0305,0.0346,0.0401,0.0441,0.0498,0.0567,0.0617,0.0611,0.0593,0.0352,0.0061,-0.0108,-0.0463,-0.0445,-0.0575,-0.0651,-0.0683,-0.0755,-0.0362,-0.0412,-0.0412,-0.0411,-0.0411,-0.0411,0,0.0258,0.0281,0.0325,0.0369,0.0419,0.0428,0.0511,0.0548,0.063,0.0664,0.0689,0.0523,0.0234,-0.0079,-0.0525,-0.0777,-0.0862,-0.0932,-0.1019,-0.1045,-0.0691,-0.0705,-0.0832,-0.0832,-0.0832,-0.0832,-0.0831,-0.0831,0.028,0.0326,0.0343,0.042,0.0454,0.0514,0.0557,0.0614,0.0649,0.0643,0.0593,0.0534,0.0191,-0.0485,-0.1033,-0.115,-0.1342,-0.1382,-0.1464,-0.1248,-0.122,-0.1194,-0.1227,-0.1461,-0.1462,-0.1785,-0.1789,-0.1791]}],[{"header":{"parameterUnit":"m.s-1","parameterCategory":2,"la1":30.2991,"la2":30.254,"lo1":-89.0895,"lo2":-89.0444,"dy":0.0017,"dx":0.0017,"nx":28,"ny":28,"refTime":"2025-01-08T09:00:00:Z","depth":"2","parameterNumber":2,"parameterNumberName":"U-component_of_CURRENTS"},"data":[0,0,0,0,0,0,0,0,0,0,0,0,0,0,0,0,0,0,0,0,0,0,0,0,0,0,0,0,0,0,0,0,0,0,0,0,0,0,0,0,0,0,0,0,0,0,0,0,0,0,0,0,0,0,0,0,0,0,0.1995,0.1995,0,0.1973,0.1973,0.1972,0.1968,0.1968,0.1969,0.1969,0.1904,0.1902,0.19,0,0,0,0,0,0,0,0,0,0,0,0,0,0.2046,0.2045,0.1995,0.1995,0.1995,0.1973,0.1973,0.1972,0.1968,0.1968,0.1969,0.1969,0.1904,0.1902,0.1899,0,0,0,0,0,0,0,0,0,0,0,0,0,0.2022,0.2045,0.1995,0.1992,0.1991,0.1973,0.1973,0.1972,0.1968,0.1969,0.1969,0.197,0.1905,0.1902,0.1899,0.1869,0,0,0.189,0.1888,0,0,0,0,0,0,0,0,0.2024,0.202,0.1992,0.1992,0.1991,0.1976,0.1967,0.1936,0.1968,0.1975,0.1969,0.197,0.1925,0.192,0.1912,0.1866,0.1863,0.1889,0.1887,0.1886,0.1885,0,0,0,0,0,0,0,0.2025,0.2021,0.1984,0.1992,0.1992,0.1996,0.1993,0.1961,0.1944,0.1974,0.1974,0.1975,0.1924,0.1915,0.1911,0.1862,0.1889,0.1887,0.1885,0.1884,0.1836,0.1837,0,0,0,0,0,0,0.2031,0.2022,0.1985,0.1984,0.2012,0.1995,0.1991,0.1978,0.1946,0.1942,0.1974,0.1975,0.1921,0.1914,0.1908,0.1907,0.1886,0.1883,0.1881,0.1835,0.1836,0.1837,0,0,0,0,0,0,0.2031,0.2027,0.1986,0.2005,0.2001,0.1993,0.1979,0.1978,0.1974,0.1947,0.1942,0.1974,0.1921,0.1913,0.1891,0.1903,0.1882,0.1879,0.1835,0.1836,0.1836,0.1881,0,0,0,0,0,0,0.2033,0.2027,0.202,0.2005,0.2,0.1982,0.1979,0.1977,0.1975,0.1975,0.1944,0.1939,0.1921,0.1896,0.1888,0.1899,0.1877,0.1834,0.1835,0.1836,0.1879,0.1883,0.1887,0,0,0,0,0,0.2034,0.2022,0.2019,0.2015,0.1989,0.1982,0.1979,0.1975,0.1974,0.1973,0.1957,0.194,0.1898,0.1893,0.1884,0.1894,0.1833,0.1835,0.1836,0.1877,0.1883,0.1887,0,0,0,0,0,0,0.2029,0.202,0.2017,0.1998,0.1995,0.1982,0.1982,0.1976,0.1962,0.1963,0.1936,0.1929,0.1921,0.1898,0.1893,0.1886,0.1867,0.1866,0.1901,0.1906,0.191,0.192,0.1874,0,0,0,0,0,0.2027,0.2021,0.2012,0.1998,0.2,0.1991,0.1987,0.1985,0.1972,0.1967,0.1946,0.1928,0.1917,0.1904,0.1888,0.187,0.1871,0.1875,0.1879,0.1883,0.1886,0.1906,0.1913,0.1841,0.1841,0.1841,0,0,0.2019,0.2015,0.201,0.1998,0.1996,0.1997,0.199,0.1988,0.1989,0.1959,0.1951,0.1939,0.1917,0.191,0.1904,0.1892,0.1905,0.1885,0.1888,0.1889,0.1908,0.1915,0.1921,0.1842,0.1842,0.1842,0,0,0.2011,0.2001,0.2001,0.2002,0.2005,0.2002,0.2004,0.1995,0.1995,0.1983,0.1974,0.1971,0.1936,0.1935,0.1927,0.1941,0.193,0.1936,0.1958,0.1978,0.1984,0.1989,0.2004,0.2011,0.1934,0.1934,0.1934,0,0.2007,0.1996,0.1999,0.2004,0.2007,0.2006,0.2009,0.2007,0.1992,0.1994,0.1987,0.1972,0.1952,0.1957,0.1967,0.1951,0.1958,0.194,0.1984,0.199,0.1995,0.2008,0.2015,0.1936,0.1936,0.1936,0.1936,0,0.1999,0.1997,0.1999,0.2007,0.2012,0.2013,0.2018,0.2021,0.202,0.2018,0.2025,0.2009,0.2003,0.2001,0.1984,0.201,0.2004,0.1992,0.1973,0.2005,0.2017,0.2023,0.194,0.1939,0.1938,0.1938,0,0,0.1965,0.1991,0.1989,0.2004,0.2015,0.2018,0.2029,0.2037,0.2052,0.2045,0.2064,0.2053,0.2054,0.2046,0.2035,0.2048,0.2089,0.2035,0.2035,0.2053,0.2134,0.2121,0.2126,0.2087,0.2089,0.209,0.2131,0,0.1957,0.1976,0.1985,0.2,0.2013,0.2026,0.2039,0.2051,0.2061,0.2079,0.2081,0.2093,0.2069,0.2076,0.2087,0.2093,0.2106,0.2079,0.2098,0.2098,0.2086,0.2133,0.1928,0.1947,0.2137,0.2138,0.2139,0,0.1935,0.1958,0.1976,0.2015,0.2021,0.203,0.2063,0.2073,0.2102,0.2116,0.2133,0.2135,0.2157,0.2134,0.2162,0.2147,0.2143,0.2144,0.2146,0.2121,0.2097,0.1945,0.195,0.2148,0.2148,0.2147,0.2146,0,0.1914,0.1945,0.1964,0.1975,0.2017,0.2031,0.205,0.2082,0.2101,0.2144,0.2168,0.219,0.2209,0.2215,0.2212,0.2194,0.2245,0.2218,0.2202,0.2201,0.2023,0.2004,0.2238,0.2238,0.2238,0.2238,0.2238,0,0.1895,0.1908,0.196,0.1971,0.1994,0.2031,0.2055,0.2082,0.213,0.2155,0.2186,0.2215,0.2232,0.2255,0.2243,0.225,0.227,0.222,0.2217,0.2033,0.2016,0.2183,0.2176,0.2239,0.2239,0.2239,0.2239,0,0.186,0.1892,0.1916,0.1969,0.1981,0.1999,0.2047,0.2075,0.2126,0.2165,0.2183,0.2247,0.2284,0.2295,0.2317,0.2292,0.2297,0.2288,0.2075,0.2048,0.223,0.2225,0.2281,0.2281,0.2281,0.2281,0.2281,0,0.1844,0.1856,0.1903,0.1919,0.194,0.1972,0.1996,0.2056,0.209,0.2174,0.2197,0.226,0.2287,0.2332,0.229,0.228,0.2312,0.2096,0.2026,0.2246,0.2238,0.2232,0.2227,0.1801,0.1797,0.1794,0.1791,0,0.1815,0.183,0.1855,0.1886,0.1913,0.1935,0.198,0.2003,0.2075,0.2111,0.2173,0.2209,0.2252,0.2154,0.2157,0.2121,0.2085,0.2035,0.2313,0.1838,0.1801,0.1791,0.18,0.1763,0.1766,0.1768,0.1769,0.177,0.1787,0.1792,0.1826,0.1849,0.1875,0.1891,0.1883,0.1923,0.1947,0.1951,0.2061,0.2021,0.2034,0.1931,0.1876,0.1823,0.197,0.1858,0.1864,0.1874,0.1827,0.1795,0.1746,0.1748,0.175,0.1752,0.1754,0,0.1742,0.1765,0.1789,0.18,0.179,0.1835,0.1861,0.1811,0.1781,0.1802,0.1803,0.1637,0.1578,0.1593,0.1467,0.1491,0.1438,0.1431,0.1321,0.1352,0.1378,0.1302,0.1082,0.108,0.1078,0.1077,0,0,0.1722,0.1719,0.1731,0.1701,0.1714,0.1652,0.1647,0.1582,0.1553,0.1461,0.14,0.1468,0.1538,0.1269,0.1251,0.1142,0.1236,0.11,0.1639,0.154,0.1563,0.1629,0.1547,0,0,0,0,0]},{"header":{"parameterUnit":"m.s-1","parameterCategory":2,"la1":30.2991,"la2":30.254,"lo1":-89.0895,"lo2":-89.0444,"dy":0.0017,"dx":0.0017,"nx":28,"ny":28,"refTime":"2025-01-08T09:00:00:Z","depth":"2","parameterNumber":3,"parameterNumberName":"V-component_of_CURRENTS"},"data":[0,0,0,0,0,0,0,0,0,0,0,0,0,0,0,0,0,0,0,0,0,0,0,0,0,0,0,0,0,0,0,0,0,0,0,0,0,0,0,0,0,0,0,0,0,0,0,0,0,0,0,0,0,0,0,0,0,0,-0.0144,-0.0144,0,-0.0179,-0.0179,-0.018,-0.0205,-0.0205,-0.0205,-0.0205,-0.019,-0.0189,-0.0188,0,0,0,0,0,0,0,0,0,0,0,0,0,-0.0087,-0.0088,-0.0143,-0.0144,-0.0145,-0.0179,-0.018,-0.018,-0.0205,-0.0205,-0.0205,-0.0205,-0.019,-0.0189,-0.0188,0,0,0,0,0,0,0,0,0,0,0,0,0,-0.0116,-0.0089,-0.0143,-0.0161,-0.0164,-0.0179,-0.018,-0.018,-0.0204,-0.0205,-0.0205,-0.0206,-0.019,-0.0189,-0.0188,-0.0175,0,0,-0.0185,-0.0185,0,0,0,0,0,0,0,0,-0.0114,-0.0118,-0.0158,-0.016,-0.0163,-0.0188,-0.0154,-0.0176,-0.0204,-0.0188,-0.0205,-0.0206,-0.0185,-0.0184,-0.019,-0.0174,-0.0173,-0.0185,-0.0185,-0.0184,-0.0184,0,0,0,0,0,0,0,-0.0112,-0.0116,-0.0157,-0.0159,-0.0161,-0.0165,-0.0169,-0.0158,-0.0182,-0.019,-0.0192,-0.0197,-0.0185,-0.0191,-0.0189,-0.0173,-0.0185,-0.0184,-0.0184,-0.0183,-0.0149,-0.0149,0,0,0,0,0,0,-0.0109,-0.0114,-0.0156,-0.0158,-0.014,-0.0165,-0.017,-0.0179,-0.0184,-0.0185,-0.0196,-0.0198,-0.0192,-0.0191,-0.0189,-0.0168,-0.0184,-0.0183,-0.0183,-0.0149,-0.0149,-0.0149,0,0,0,0,0,0,-0.0108,-0.0113,-0.0154,-0.0137,-0.0143,-0.0166,-0.0176,-0.018,-0.0188,-0.0189,-0.019,-0.0201,-0.0192,-0.019,-0.0182,-0.0168,-0.0183,-0.0182,-0.015,-0.0149,-0.0149,-0.013,0,0,0,0,0,0,-0.0106,-0.0112,-0.0115,-0.0137,-0.0144,-0.016,-0.0176,-0.018,-0.0191,-0.0193,-0.0194,-0.0193,-0.0193,-0.0183,-0.0181,-0.0167,-0.0181,-0.015,-0.015,-0.0149,-0.0131,-0.0129,-0.0127,0,0,0,0,0,-0.0104,-0.0107,-0.0115,-0.012,-0.0148,-0.016,-0.0163,-0.018,-0.0191,-0.019,-0.0194,-0.0193,-0.0178,-0.0182,-0.0179,-0.0165,-0.0151,-0.015,-0.0149,-0.0132,-0.0129,-0.0127,0,0,0,0,0,0,-0.0082,-0.011,-0.012,-0.0131,-0.0143,-0.0164,-0.0167,-0.018,-0.0184,-0.0185,-0.0189,-0.0187,-0.0175,-0.0173,-0.0179,-0.0154,-0.0164,-0.0162,-0.0151,-0.0149,-0.0147,-0.0139,-0.018,0,0,0,0,0,-0.0078,-0.009,-0.0112,-0.012,-0.0126,-0.0146,-0.0153,-0.0164,-0.0173,-0.0177,-0.0178,-0.0176,-0.0169,-0.0163,-0.0158,-0.0142,-0.015,-0.0131,-0.0129,-0.0127,-0.012,-0.0124,-0.0122,-0.0146,-0.0146,-0.0146,0,0,-0.0071,-0.0089,-0.0094,-0.0116,-0.0128,-0.0126,-0.0151,-0.016,-0.0154,-0.0171,-0.0162,-0.0168,-0.0165,-0.015,-0.0144,-0.0147,-0.0128,-0.0127,-0.0125,-0.0118,-0.0123,-0.0121,-0.0119,-0.0146,-0.0146,-0.0146,0,0,-0.0057,-0.0077,-0.0079,-0.0087,-0.0104,-0.0114,-0.0116,-0.0134,-0.0139,-0.0135,-0.0144,-0.0145,-0.0135,-0.0131,-0.0127,-0.0109,-0.0119,-0.0107,-0.0086,-0.0091,-0.0089,-0.0087,-0.0107,-0.0107,-0.0103,-0.0103,-0.0103,0,-0.0045,-0.0052,-0.0078,-0.0078,-0.0079,-0.0106,-0.0096,-0.0103,-0.0115,-0.0109,-0.0127,-0.0121,-0.0124,-0.0102,-0.0101,-0.0103,-0.0114,-0.0095,-0.0088,-0.0086,-0.0085,-0.0105,-0.0106,-0.0102,-0.0103,-0.0103,-0.0103,0,-0.0027,-0.0033,-0.0033,-0.0041,-0.0043,-0.0042,-0.0052,-0.0052,-0.0064,-0.0069,-0.0061,-0.0077,-0.0072,-0.0075,-0.0084,-0.0069,-0.0084,-0.0088,-0.0094,-0.0081,-0.0104,-0.0105,-0.0101,-0.0101,-0.0102,-0.0102,0,0,0.0003,-0.0018,-0.0015,-0.0009,-0.0023,-0.0018,-0.0009,-0.0002,0.0015,-0.0008,0.001,-0.0001,-0.0018,-0.0016,-0.003,-0.0038,-0.0049,-0.0058,-0.0059,-0.0078,-0.0071,-0.0096,-0.01,-0.0053,-0.0052,-0.0052,-0.0095,0,0.0028,0.0037,0.0022,0.0045,0.0052,0.0037,0.0049,0.0053,0.0053,0.0064,0.004,0.0047,0.0009,0.0008,-0.0007,-0.0032,-0.0048,-0.0038,-0.008,-0.0081,-0.0105,-0.01,-0.007,-0.0107,-0.0096,-0.0096,-0.0097,0,0.0058,0.0059,0.0079,0.0087,0.009,0.0101,0.0127,0.0137,0.0142,0.0138,0.0133,0.0114,0.0098,0.0059,0.0013,0.0021,-0.0024,-0.0053,-0.0055,-0.0083,-0.0107,-0.0116,-0.0109,-0.0098,-0.0098,-0.0098,-0.0098,0,0.0102,0.0106,0.0125,0.0128,0.0129,0.0143,0.0148,0.0161,0.0185,0.0188,0.0201,0.0172,0.0163,0.0106,0.0032,0.0025,-0.0024,-0.0039,-0.0108,-0.0111,-0.0094,-0.0096,-0.0074,-0.0074,-0.0074,-0.0074,-0.0074,0,0.0137,0.0155,0.0145,0.0159,0.0191,0.0179,0.0222,0.0224,0.0243,0.0283,0.024,0.0262,0.0175,0.0135,0.0055,-0.003,-0.001,-0.0103,-0.0119,-0.0089,-0.009,-0.0085,-0.0086,-0.0076,-0.0075,-0.0075,-0.0075,0,0.0181,0.0171,0.0197,0.0203,0.021,0.0234,0.0264,0.0301,0.0302,0.0353,0.0354,0.0333,0.0277,0.0181,0.0092,0.0008,-0.0075,-0.0112,-0.0083,-0.0095,-0.0168,-0.0167,-0.0191,-0.0192,-0.0193,-0.0194,-0.0194,0,0.02,0.0217,0.0237,0.0258,0.0261,0.0292,0.032,0.0329,0.0377,0.0404,0.0438,0.0397,0.0384,0.023,0.0086,-0.006,-0.0084,-0.0146,-0.0154,-0.0164,-0.0177,-0.0175,-0.0173,-0.0132,-0.0132,-0.0132,-0.0132,0,0.0245,0.0252,0.0273,0.0313,0.0344,0.0384,0.0425,0.0468,0.0492,0.0532,0.0573,0.056,0.0419,0.0289,0.0078,-0.0021,-0.0122,-0.0154,-0.0155,-0.011,-0.0112,-0.0124,-0.0123,-0.0133,-0.0133,-0.0133,-0.0133,-0.0133,0.0282,0.0304,0.0332,0.0372,0.0412,0.0468,0.0506,0.0568,0.0636,0.0692,0.0673,0.0655,0.0499,0.0243,0.0069,-0.0124,-0.0122,-0.0192,-0.0189,-0.0187,-0.0175,-0.018,-0.0212,-0.0212,-0.0213,-0.0213,-0.0213,0,0.0329,0.0346,0.039,0.0434,0.0491,0.0493,0.0574,0.0629,0.0715,0.0751,0.0774,0.0645,0.0482,0.0289,0.0015,-0.0155,-0.0157,-0.0217,-0.0173,-0.0171,-0.017,-0.0155,-0.0188,-0.0188,-0.0188,-0.0189,0,0,0.0352,0.0401,0.0418,0.0498,0.0525,0.0601,0.0644,0.0727,0.0777,0.0831,0.0815,0.0761,0.0535,0.0344,0.0124,-0.0035,-0.007,-0.007,-0.0072,0.0007,0.001,-0.0137,-0.0111,0,0,0,0,0]}],[{"header":{"parameterUnit":"m.s-1","parameterCategory":2,"la1":30.2991,"la2":30.254,"lo1":-89.0895,"lo2":-89.0444,"dy":0.0017,"dx":0.0017,"nx":28,"ny":28,"refTime":"2025-01-08T09:00:00:Z","depth":"4","parameterNumber":2,"parameterNumberName":"U-component_of_CURRENTS"},"data":[0,0,0,0,0,0,0,0,0,0,0,0,0,0,0,0,0,0,0,0,0,0,0,0,0,0,0,0,0,0,0,0,0,0,0,0,0,0,0,0,0,0,0,0,0,0,0,0,0,0,0,0,0,0,0,0,0,0,0.105,0.105,0,0.108,0.108,0.1081,0.1126,0.1127,0.1128,0.1129,0.1223,0.1225,0.1227,0,0,0,0,0,0,0,0,0,0,0,0,0,0.1026,0.1026,0.105,0.105,0.105,0.108,0.108,0.1081,0.1126,0.1127,0.1128,0.1129,0.1223,0.1225,0.1227,0,0,0,0,0,0,0,0,0,0,0,0,0,0.1043,0.1026,0.1049,0.1077,0.108,0.108,0.1081,0.1081,0.1126,0.1127,0.1128,0.113,0.1222,0.1224,0.1227,0.1216,0,0,0.1235,0.1236,0,0,0,0,0,0,0,0,0.1042,0.1044,0.1073,0.1075,0.1079,0.1102,0.1107,0.113,0.1125,0.1107,0.1129,0.113,0.1188,0.1194,0.1194,0.122,0.1224,0.1235,0.1236,0.1238,0.1238,0,0,0,0,0,0,0,0.1041,0.1043,0.1061,0.1073,0.1077,0.1087,0.1091,0.1111,0.114,0.1109,0.1113,0.1117,0.119,0.1191,0.1197,0.1226,0.1235,0.1237,0.1239,0.124,0.1341,0.1342,0,0,0,0,0,0,0.1038,0.1041,0.106,0.1062,0.1064,0.1086,0.1091,0.1092,0.1139,0.1147,0.1116,0.1119,0.1186,0.1194,0.12,0.128,0.1237,0.124,0.1241,0.1339,0.1341,0.1342,0,0,0,0,0,0,0.1037,0.1039,0.1058,0.1053,0.1057,0.1086,0.1087,0.1092,0.1124,0.1144,0.1153,0.1147,0.1188,0.1197,0.1245,0.1281,0.1241,0.1243,0.1338,0.134,0.1341,0.1382,0,0,0,0,0,0,0.1036,0.1038,0.1053,0.1053,0.1057,0.1079,0.1086,0.1092,0.1123,0.1129,0.1172,0.118,0.1189,0.1242,0.1248,0.1284,0.1245,0.1337,0.1339,0.1341,0.1379,0.1385,0.139,0,0,0,0,0,0.1035,0.1044,0.1053,0.1056,0.1071,0.108,0.1084,0.1107,0.1124,0.1141,0.1173,0.1181,0.126,0.1244,0.1252,0.1289,0.1335,0.1338,0.1341,0.1377,0.1384,0.139,0,0,0,0,0,0,0.1044,0.1049,0.106,0.1072,0.1086,0.1089,0.1108,0.1122,0.1157,0.1174,0.1193,0.1203,0.1261,0.1265,0.1247,0.1324,0.13,0.1305,0.1325,0.1332,0.1337,0.1336,0.1247,0,0,0,0,0,0.105,0.1061,0.1067,0.1082,0.1089,0.1104,0.1117,0.1133,0.1155,0.1173,0.1205,0.1239,0.127,0.1294,0.1321,0.1359,0.136,0.1388,0.1393,0.1398,0.1402,0.143,0.1438,0.1351,0.1351,0.1351,0,0,0.1058,0.1064,0.1071,0.1085,0.1098,0.1113,0.1116,0.1142,0.1168,0.1178,0.1237,0.1263,0.1285,0.1332,0.1358,0.1345,0.1423,0.1401,0.1405,0.1406,0.1433,0.1442,0.1449,0.1352,0.1352,0.1352,0,0,0.1069,0.1084,0.1095,0.1108,0.1132,0.114,0.1154,0.1177,0.1205,0.1251,0.1269,0.1314,0.1363,0.1384,0.1399,0.1448,0.1451,0.1464,0.1492,0.152,0.1527,0.1533,0.1543,0.155,0.1466,0.1466,0.1466,0,0.1083,0.1091,0.1102,0.1117,0.1132,0.1155,0.1172,0.1199,0.1241,0.1269,0.1282,0.1364,0.1386,0.1436,0.1456,0.1462,0.1472,0.1466,0.1526,0.1533,0.1539,0.1547,0.1554,0.1468,0.1468,0.1468,0.1468,0,0.1093,0.1112,0.1121,0.1145,0.1166,0.1184,0.1215,0.1256,0.1295,0.132,0.1393,0.1422,0.147,0.1487,0.1489,0.1546,0.1538,0.153,0.1508,0.155,0.1556,0.1562,0.1472,0.1471,0.147,0.147,0,0,0.1093,0.112,0.1129,0.1145,0.1182,0.1197,0.1249,0.1293,0.1339,0.1392,0.1449,0.1504,0.1529,0.1547,0.1562,0.1586,0.1635,0.1581,0.1581,0.1587,0.1691,0.1577,0.1573,0.1643,0.1645,0.1646,0.1677,0,0.11,0.1124,0.114,0.1179,0.1192,0.1231,0.1277,0.1329,0.1382,0.1446,0.1489,0.1552,0.1549,0.1586,0.161,0.1636,0.1656,0.1627,0.1652,0.1653,0.1544,0.1578,0.1651,0.1682,0.1683,0.1684,0.1685,0,0.1104,0.112,0.1149,0.1193,0.1206,0.1242,0.132,0.1364,0.145,0.1497,0.1561,0.1598,0.1658,0.1646,0.1703,0.1689,0.1695,0.1702,0.1704,0.1587,0.1551,0.1633,0.1697,0.1696,0.1695,0.1694,0.1693,0,0.1088,0.1128,0.1151,0.1165,0.122,0.126,0.1304,0.1388,0.1435,0.1539,0.1588,0.1656,0.1706,0.173,0.175,0.1739,0.1796,0.178,0.1678,0.1669,0.1745,0.1738,0.1811,0.1811,0.1811,0.1811,0.1811,0,0.1074,0.1099,0.1153,0.1165,0.1211,0.1263,0.133,0.1391,0.1483,0.1537,0.1617,0.1663,0.1734,0.177,0.1772,0.1742,0.1816,0.1685,0.1672,0.176,0.1755,0.1749,0.1742,0.1812,0.1812,0.1812,0.1812,0,0.1046,0.1079,0.1108,0.1174,0.1201,0.124,0.1331,0.1379,0.1479,0.1554,0.1592,0.169,0.1734,0.1774,0.1817,0.1761,0.175,0.1719,0.1812,0.1803,0.1598,0.1593,0.1604,0.1601,0.1598,0.1595,0.1593,0,0.1026,0.104,0.1106,0.1128,0.1161,0.1226,0.1268,0.1369,0.1416,0.1548,0.1573,0.1661,0.1707,0.167,0.1723,0.1713,0.169,0.1672,0.1629,0.1592,0.1579,0.1578,0.1577,0.1588,0.1587,0.1586,0.1585,0,0.0988,0.1023,0.1045,0.1088,0.1134,0.117,0.1241,0.1265,0.1379,0.148,0.1515,0.1536,0.1577,0.1596,0.1603,0.1592,0.1678,0.1638,0.1644,0.1604,0.1572,0.1562,0.1564,0.1574,0.1576,0.1577,0.1578,0,0.0965,0.0968,0.1004,0.1031,0.1083,0.1099,0.1141,0.1188,0.124,0.1384,0.1388,0.1475,0.1561,0.1533,0.1539,0.1522,0.1493,0.1436,0.1452,0.1464,0.1403,0.1341,0.1262,0,0,0,0,0,0.0932,0.0922,0.0944,0.0959,0.1008,0.1037,0.1115,0.1162,0.1268,0.1257,0.1319,0.1347,0.1361,0.1404,0.1356,0.1475,0.15,0.1412,0.1443,0.1514,0.1526,0.1466,0,0,0,0,0,0,0.0906,0.0922,0.0914,0.0895,0.0899,0.0938,0.0984,0.1056,0.1052,0.1166,0.1178,0.1261,0.1292,0.1371,0.1329,0.1341,0.1331,0.1467,0.1463,0.1507,0.1518,0.1528,0.1471,0,0,0,0,0]},{"header":{"parameterUnit":"m.s-1","parameterCategory":2,"la1":30.2991,"la2":30.254,"lo1":-89.0895,"lo2":-89.0444,"dy":0.0017,"dx":0.0017,"nx":28,"ny":28,"refTime":"2025-01-08T09:00:00:Z","depth":"4","parameterNumber":3,"parameterNumberName":"V-component_of_CURRENTS"},"data":[0,0,0,0,0,0,0,0,0,0,0,0,0,0,0,0,0,0,0,0,0,0,0,0,0,0,0,0,0,0,0,0,0,0,0,0,0,0,0,0,0,0,0,0,0,0,0,0,0,0,0,0,0,0,0,0,0,0,0.0278,0.0278,0,0.0268,0.0268,0.0268,0.0274,0.0275,0.0275,0.0275,0.0248,0.0247,0.0246,0,0,0,0,0,0,0,0,0,0,0,0,0,0.0285,0.0284,0.0278,0.0278,0.0278,0.0268,0.0268,0.0268,0.0274,0.0275,0.0275,0.0275,0.0248,0.0247,0.0246,0,0,0,0,0,0,0,0,0,0,0,0,0,0.0279,0.0284,0.0278,0.028,0.028,0.0268,0.0268,0.0268,0.0274,0.0275,0.0275,0.0276,0.0249,0.0247,0.0246,0.0227,0,0,0.0241,0.024,0,0,0,0,0,0,0,0,0.0279,0.0279,0.028,0.028,0.028,0.0273,0.026,0.0253,0.0274,0.0276,0.0275,0.0276,0.0254,0.0252,0.025,0.0225,0.0224,0.0241,0.024,0.0239,0.0239,0,0,0,0,0,0,0,0.028,0.0279,0.0274,0.028,0.028,0.0275,0.0275,0.0259,0.0263,0.0276,0.0277,0.0275,0.0254,0.0251,0.0249,0.0224,0.0241,0.0239,0.0238,0.0238,0.0198,0.0197,0,0,0,0,0,0,0.0281,0.0279,0.0274,0.0274,0.0281,0.0274,0.0274,0.0275,0.0263,0.0262,0.0275,0.0276,0.0253,0.0251,0.0248,0.0235,0.0239,0.0238,0.0237,0.0198,0.0198,0.0197,0,0,0,0,0,0,0.0281,0.0281,0.0275,0.0276,0.0275,0.0274,0.0274,0.0274,0.0272,0.0262,0.0261,0.0273,0.0254,0.025,0.0237,0.0234,0.0237,0.0236,0.0198,0.0198,0.0197,0.0203,0,0,0,0,0,0,0.0282,0.0281,0.0281,0.0276,0.0275,0.0268,0.0274,0.0274,0.0271,0.0272,0.026,0.0258,0.0254,0.024,0.0236,0.0232,0.0234,0.0198,0.0198,0.0198,0.0203,0.0203,0.0203,0,0,0,0,0,0.0282,0.0279,0.0281,0.0281,0.0276,0.0267,0.0266,0.0267,0.027,0.0267,0.0263,0.0259,0.0235,0.0238,0.0234,0.0229,0.0198,0.0198,0.0198,0.0203,0.0203,0.0203,0,0,0,0,0,0,0.0283,0.028,0.0282,0.0279,0.0274,0.0269,0.0268,0.0265,0.0259,0.0262,0.0254,0.0251,0.0239,0.0232,0.0235,0.0217,0.0217,0.0216,0.0223,0.0223,0.0223,0.023,0.0233,0,0,0,0,0,0.0283,0.0281,0.0277,0.0275,0.0274,0.027,0.0267,0.0266,0.026,0.0259,0.0249,0.0241,0.0233,0.0227,0.0217,0.0203,0.0192,0.0198,0.0198,0.0198,0.0201,0.0185,0.0184,0.0196,0.0196,0.0196,0,0,0.0284,0.0282,0.0281,0.0275,0.0274,0.0273,0.027,0.0265,0.0265,0.0255,0.0249,0.0238,0.0229,0.0219,0.0212,0.0213,0.0187,0.0198,0.0198,0.0201,0.0184,0.0183,0.0182,0.0196,0.0196,0.0196,0,0,0.0285,0.0283,0.0283,0.028,0.0275,0.0272,0.0271,0.0263,0.0261,0.0249,0.0247,0.0234,0.0216,0.0212,0.0208,0.02,0.0187,0.0196,0.0201,0.0185,0.0184,0.0183,0.0158,0.0155,0.0197,0.0197,0.0197,0,0.0287,0.0288,0.028,0.028,0.0283,0.0274,0.0278,0.027,0.0257,0.0257,0.0248,0.0227,0.0215,0.021,0.0209,0.02,0.0187,0.0203,0.0185,0.0184,0.0183,0.0158,0.0154,0.0197,0.0197,0.0197,0.0197,0,0.0287,0.0291,0.0291,0.0291,0.0289,0.029,0.0284,0.0276,0.027,0.0263,0.0251,0.023,0.0221,0.0211,0.0207,0.0195,0.0187,0.0187,0.0186,0.0182,0.0156,0.0152,0.0197,0.0197,0.0197,0.0197,0,0,0.0293,0.0292,0.0295,0.0305,0.0299,0.0301,0.0296,0.0295,0.0301,0.0273,0.0274,0.0248,0.0237,0.0231,0.0219,0.0201,0.0173,0.0191,0.019,0.0168,0.013,0.0119,0.0114,0.0172,0.0171,0.0171,0.0112,0,0.0301,0.031,0.0305,0.032,0.0328,0.0322,0.0321,0.0316,0.0309,0.0302,0.0276,0.0269,0.0246,0.0241,0.0218,0.0191,0.0165,0.0189,0.0137,0.0135,0.0127,0.011,0.0169,0.0109,0.0108,0.0108,0.0107,0,0.0307,0.0315,0.0332,0.0347,0.035,0.0355,0.0366,0.0364,0.0349,0.0342,0.0323,0.0304,0.0274,0.0254,0.0194,0.0211,0.017,0.0141,0.0138,0.0125,0.0117,0.0116,0.01,0.01,0.0101,0.0101,0.0102,0,0.0326,0.0337,0.0357,0.0362,0.0369,0.0378,0.0381,0.0377,0.0387,0.0369,0.037,0.0329,0.0312,0.0256,0.0191,0.0194,0.012,0.0118,0.0065,0.0063,0.0089,0.0091,0.0069,0.0069,0.0069,0.0069,0.007,0,0.0339,0.0358,0.0369,0.0382,0.0407,0.0403,0.0428,0.0422,0.0422,0.0435,0.0395,0.0389,0.0313,0.0262,0.0197,0.0116,0.0122,0.006,0.0047,0.0091,0.0094,0.0085,0.0088,0.0067,0.0068,0.0068,0.0068,0,0.0357,0.0363,0.039,0.0408,0.0418,0.0436,0.0463,0.048,0.0472,0.0486,0.0481,0.0435,0.0365,0.0281,0.0188,0.013,0.0053,0.0021,0.0066,0.0058,0.0002,0.0006,-0.0044,-0.0045,-0.0046,-0.0046,-0.0047,0,0.0365,0.0381,0.0416,0.0437,0.0448,0.0477,0.0498,0.0504,0.0523,0.0513,0.0519,0.0459,0.0415,0.0272,0.0181,0.0047,0.0029,-0.0017,-0.0005,-0.0002,-0.0009,-0.0004,0.0,-0.0048,-0.0048,-0.0048,-0.0048,0,0.0385,0.0401,0.0425,0.0468,0.0499,0.0533,0.0562,0.0576,0.058,0.0579,0.0546,0.0469,0.0387,0.0273,0.0165,0.0072,0.0012,-0.0025,-0.0024,-0.0013,-0.0007,-0.0013,-0.0007,-0.0051,-0.0051,-0.005,-0.005,0,0.0405,0.0425,0.046,0.0496,0.0538,0.0571,0.0584,0.0597,0.0608,0.059,0.0578,0.0484,0.0432,0.0285,0.0189,0.0091,0.0068,0.0036,0.0033,0.0035,0.0075,0.0096,0.0069,0,0,0,0,0,0.042,0.0447,0.0485,0.0523,0.0565,0.0588,0.062,0.0628,0.063,0.0611,0.0593,0.0513,0.0364,0.0302,0.0203,0.0173,0.0051,0.0053,0.0013,-0.0065,-0.0062,-0.0029,0,0,0,0,0,0,0.0432,0.0472,0.0488,0.0539,0.0569,0.0614,0.0634,0.0635,0.062,0.0606,0.053,0.0488,0.0346,0.0424,0.0202,0.0172,0.0132,-0.0015,-0.0017,-0.0067,-0.0064,-0.0062,-0.0027,0,0,0,0,0]}]]